Home   Weather   Surat   Past weeks

Flag for India Past Weather in Surat, Gujarat, India — Yesterday and Last 2 Weeks

Now
100 °F

Clear.


Feels Like: 112 °F
Forecast: 83 / 100 °F
Wind: 9 mph from West

Location: Ahmadabad Airport

Current Time: May 24, 2017 at 1:31:47 pm

Latest Report: May 24, 2017 at 12:30 pm


Visibility: 4 mi

Pressure: 29.71 "Hg

Humidity: 42%

Dew Point: 73 °F

Location of SuratLocation

Past Weather in Surat — Graph

°F

Surat Temperature Yesterday

Maximum temperature yesterday: 106 °F (at 3:30 pm)
Minimum temperature yesterday: 82 °F (at 6:00 am)
Average temperature yesterday: 96 °F

High & Low Weather Summary for the Past Weeks

 TemperatureHumidityPressure
High111 °F (May 13, 3:00 pm)74% (May 17, 7:30 am)29.83 "Hg (May 17, 7:30 am)
Low77 °F (May 21, 11:30 pm)11% (May 17, 5:30 pm)29.56 "Hg (May 16, 5:30 pm)
Average95 °F39%29.70 "Hg
* Reported May 9 12:30 pm — May 24 12:30 pm, Surat. Weather by CustomWeather, © 2017

Note: Actual official high and low records may vary slightly from our data, if they occured in-between our weather recording intervals... More about our weather records

Advertising

Surat Weather History for the Previous 24 Hours

Scroll right to see more
 ConditionsComfort  
Time TempWeatherWind HumidityBarometerVisibility
12:30 pm
Wed, May 24
99 °FClear.12 mph44%29.71 "Hg4 mi
12:00 pm99 °FClear.12 mph42%29.71 "Hg3 mi
11:30 am97 °FClear.13 mph44%29.74 "Hg3 mi
11:00 am95 °FClear.9 mph47%29.74 "Hg3 mi
10:30 am93 °FClear.12 mph49%29.74 "Hg3 mi
10:00 am93 °FClear.8 mph49%29.74 "Hg2 mi
9:30 am93 °FClear.7 mph49%29.74 "Hg2 mi
9:00 am91 °FClear.5 mph52%29.74 "Hg2 mi
8:30 am90 °FHaze.5 mph52%29.74 "Hg2 mi
8:00 am88 °FHaze.6 mph55%29.74 "Hg2 mi
7:30 am86 °FHaze.5 mph62%29.74 "Hg2 mi
7:00 am86 °FHaze.5 mph62%29.71 "Hg2 mi
6:30 am84 °FHaze.8 mph66%29.71 "Hg2 mi
6:00 am84 °FHaze.5 mph66%29.71 "Hg2 mi
5:00 am86 °FHaze.7 mph62%29.68 "Hg2 mi
4:30 am88 °FHaze.7 mph59%29.68 "Hg2 mi
4:00 am88 °FClear.9 mph55%29.68 "Hg2 mi
3:30 am90 °FClear.6 mph55%29.68 "Hg2 mi
3:00 am90 °FClear.7 mph55%29.68 "Hg2 mi
2:30 am90 °FClear.7 mph55%29.68 "Hg2 mi
2:00 am91 °FClear.6 mph49%29.68 "Hg2 mi
1:30 am91 °FClear.6 mph49%29.68 "Hg2 mi
1:00 am93 °FClear.6 mph47%29.68 "Hg2 mi
12:30 am95 °FClear.7 mph47%29.71 "Hg2 mi
12:00 am95 °FPassing clouds.6 mph47%29.71 "Hg2 mi
11:30 pm
Tue, May 23
95 °FPassing clouds.7 mph44%29.71 "Hg2 mi
11:00 pm97 °FPassing clouds.9 mph42%29.71 "Hg2 mi
10:30 pm99 °FPassing clouds.8 mph39%29.68 "Hg2 mi
10:00 pm99 °FPassing clouds.5 mph31%29.68 "Hg2 mi
9:30 pm100 °FPassing clouds.10 mph29%29.68 "Hg2 mi
9:00 pm99 °FPassing clouds.5 mph35%29.65 "Hg2 mi
8:30 pm100 °FPassing clouds.No wind33%29.65 "Hg2 mi
8:00 pm102 °FPassing clouds.No wind29%29.62 "Hg2 mi
7:30 pm102 °FPassing clouds.5 mph29%29.62 "Hg2 mi
7:00 pm104 °FPassing clouds.5 mph29%29.62 "Hg2 mi
6:30 pm106 °FPassing clouds.7 mph26%29.62 "Hg3 mi
5:30 pm106 °FPassing clouds.10 mph28%29.62 "Hg4 mi
5:00 pm106 °FPassing clouds.9 mph28%29.62 "Hg4 mi
4:30 pm106 °FPassing clouds.10 mph28%29.65 "Hg4 mi
4:00 pm106 °FPassing clouds.9 mph28%29.65 "Hg4 mi
3:30 pm106 °FPassing clouds.10 mph28%29.65 "Hg4 mi
3:00 pm104 °FPassing clouds.9 mph29%29.68 "Hg4 mi
2:30 pm102 °FPassing clouds.7 mph33%29.71 "Hg4 mi
2:00 pm102 °FClear.9 mph33%29.71 "Hg4 mi
1:30 pm100 °FClear.8 mph35%29.74 "Hg4 mi
1:00 pm100 °FClear.6 mph35%29.74 "Hg4 mi
Weather by CustomWeather, © 2017

See weather overviewHow to use our weather pages